DW8241 Weather Reports


Display with metric or nautical units.
time (UTC)temp
F
wind
direction
speed
MPH
gust
MPH
rain 1hr
in
rain 24hr
in
rain mn
in
humidity
%
barometer
mb
20260502163008 66 269 12.0 20.0 0.00 0.00 0.00 40 1010.1
20260502161505 66 290 9.0 17.0 0.00 0.00 0.00 41 1010.3
20260502151609 61 270 0.0 9.0 0.00 0.00 0.00 47 1011.3
20260502123006 40 214 0.0 2.0 0.00 0.00 0.00 72 1013.7
20260502121505 40 198 1.0 7.0 0.00 0.00 0.00 72 1013.9
20260502114501 40 198 0.0 11.0 0.00 0.00 0.00 71 1014.2
20260502113118 38 214 0.0 0.0 0.00 0.00 0.00 75 1014.2
20260502111602 37 229 0.0 0.0 0.00 0.00 0.00 76 1014.3
20260502110056 36 234 0.0 0.0 0.00 0.00 0.00 77 1014.5
20260502104606 36 212 0.0 0.0 0.00 0.00 0.00 75 1014.5
20260502103050 37 203 0.0 0.0 0.00 0.00 0.00 73 1014.7
20260502101604 39 190 2.0 11.0 0.00 0.00 0.00 70 1014.7
20260502071519 38 219 0.0 0.0 0.00 0.00 0.00 67 1017.4
20260502070035 39 217 0.0 0.0 0.00 0.00 0.00 67 1017.6
20260502064516 38 223 0.0 0.0 0.00 0.00 0.00 68 1017.9
20260502063019 38 224 0.0 0.0 0.00 0.00 0.00 68 1017.9
20260502061514 39 205 0.0 0.0 0.00 0.00 0.00 68 1018.0
20260502060022 39 217 0.0 0.0 0.00 0.00 0.00 67 1018.2
20260502054506 40 226 0.0 0.0 0.00 0.00 0.00 65 1018.3
20260502053003 40 223 0.0 0.0 0.00 0.00 0.00 64 1018.3
20260502051502 41 193 0.0 0.0 0.00 0.00 0.00 63 1018.2
20260502050059 41 240 0.0 0.0 0.00 0.00 0.00 62 1018.4
20260502044557 41 220 0.0 0.0 0.00 0.00 0.00 62 1018.5
20260502043111 39 136 0.0 0.0 0.00 0.00 0.00 66 1018.4
20260502041619 38 95 0.0 0.0 0.00 0.00 0.00 68 1018.5
20260502040059 39 86 0.0 0.0 0.00 0.00 0.00 69 1018.6
20260502034554 39 86 0.0 0.0 0.00 0.00 0.00 67 1018.7
20260502033053 40 86 0.0 0.0 0.00 0.00 0.00 64 1018.6
20260502031552 40 86 0.0 0.0 0.00 0.00 0.00 61 1018.6
20260502030113 42 86 0.0 0.0 0.00 0.00 0.00 59 1018.9
20260502024602 43 86 0.0 0.0 0.00 0.00 0.00 58 1018.8
20260502023125 42 86 0.0 0.0 0.00 0.00 0.00 59 1018.8
20260502021550 44 86 0.0 0.0 0.00 0.00 0.00 57 1018.7
20260502020049 47 86 0.0 0.0 0.00 0.00 0.00 54 1018.7
20260502014555 49 86 0.0 0.0 0.00 0.00 0.00 51 1018.8
20260502013055 52 86 0.0 0.0 0.00 0.00 0.00 46 1018.8
20260502011603 54 86 0.0 0.0 0.00 0.00 0.00 39 1019.0
20260502010045 55 86 0.0 0.0 0.00 0.00 0.00 37 1019.0
20260502004544 56 48 0.0 0.0 0.00 0.00 0.00 35 1019.1
20260502003041 57 345 0.0 0.0 0.00 0.00 0.00 36 1019.2
20260502001544 56 10 0.0 0.0 0.00 0.00 0.00 34 1019.2
20260502000055 57 51 0.0 0.0 0.00 0.00 0.00 33 1019.2
20260501234539 57 309 0.0 4.0 0.00 0.00 0.00 33 1019.4
20260501233046 57 327 0.0 0.0 0.00 0.00 0.00 34 1019.5
20260501231535 57 316 0.0 4.0 0.00 0.00 0.00 34 1019.5
20260501230109 56 300 0.0 0.0 0.00 0.00 0.00 34 1019.5
20260501224539 56 328 0.0 0.0 0.00 0.00 0.00 37 1019.7
20260501223029 56 27 0.0 0.0 0.00 0.00 0.00 35 1019.7
20260501221528 56 49 0.0 0.0 0.00 0.00 0.00 35 1019.8
20260501220027 56 1 0.0 0.0 0.00 0.00 0.00 37 1019.8
20260501214524 56 302 0.0 2.0 0.00 0.00 0.00 39 1020.0
20260501213027 55 107 0.0 0.0 0.00 0.00 0.00 41 1020.1
20260501211520 55 121 0.0 0.0 0.00 0.00 0.00 39 1020.1
20260501210019 55 159 0.0 0.0 0.00 0.00 0.00 37 1020.2
20260501204516 55 300 0.0 0.0 0.00 0.00 0.00 40 1020.5
20260501203023 54 338 0.0 1.0 0.00 0.00 0.00 40 1020.6
20260501201514 54 53 0.0 0.0 0.00 0.00 0.00 41 1020.8
20260501200013 54 88 0.0 0.0 0.00 0.00 0.00 41 1020.7
20260501194512 53 134 0.0 3.0 0.00 0.00 0.00 43 1021.0
20260501193010 53 359 0.0 7.0 0.00 0.00 0.00 47 1021.1
20260501191505 52 333 0.0 0.0 0.00 0.00 0.00 45 1021.2
20260501190001 51 297 0.0 5.0 0.00 0.00 0.00 47 1021.4
20260501184600 51 286 0.0 0.0 0.00 0.00 0.00 48 1021.5
20260501183103 51 314 0.0 0.0 0.00 0.00 0.00 49 1021.7
20260501181559 51 95 0.0 0.0 0.00 0.00 0.00 49 1021.9
20260501180054 49 166 0.0 0.0 0.00 0.00 0.00 51 1021.9
20260501174553 49 182 0.0 0.0 0.00 0.00 0.00 52 1022.1
20260501173104 48 25 0.0 5.0 0.00 0.00 0.00 52 1022.2